,,PA_Meas_PMT16A,,PR_Meas_QMR101_102,,RH_Meas_QMH101,,SR_Meas_QMS101,,TA_Meas_QMH101,,GenWind,,GenWind,
time,status,PA,status,PR,status,RH,status,SR,status,TA,status,DirAvg,status,SpdAvg,
2013-11-28, 00:00:04,VALID,919.04,VALID,0,VALID,95.7577,VALID,0,VALID,19.8798,VALID,346,VALID,0,
2013-11-28, 00:01:04,VALID,919.012,VALID,0,VALID,95.712,VALID,0,VALID,19.8393,VALID,346,VALID,0,
2013-11-28, 00:02:04,VALID,919.001,VALID,0,VALID,95.6739,VALID,0.107441,VALID,19.8393,VALID,346,VALID,0,
2013-11-28, 00:03:04,VALID,919.003,VALID,0,VALID,95.5976,VALID,0,VALID,19.8198,VALID,346,VALID,0,
2013-11-28, 00:04:04,VALID,918.955,VALID,0,VALID,95.5595,VALID,0.107441,VALID,19.8198,VALID,346,VALID,0,
2013-11-28, 00:05:04,VALID,918.965,VALID,0,VALID,95.5443,VALID,0,VALID,19.8003,VALID,346,VALID,0,
2013-11-28, 00:06:04,VALID,918.927,VALID,0,VALID,95.5367,VALID,0.107441,VALID,19.7403,VALID,346,VALID,0,
2013-11-28, 00:07:04,VALID,918.905,VALID,0,VALID,95.4985,VALID,0,VALID,19.7418,VALID,346,VALID,0,
2013-11-28, 00:08:04,VALID,918.876,VALID,0,VALID,95.5214,VALID,0.107441,VALID,19.7223,VALID,346,VALID,0,
2013-11-28, 00:09:04,VALID,918.833,VALID,0,VALID,95.5595,VALID,0.107441,VALID,19.7013,INVALID,360,VALID,0,
2013-11-28, 00:10:04,VALID,918.787,VALID,0,VALID,95.5748,VALID,0,VALID,19.7028,INVALID,360,VALID,0,
2013-11-28, 00:11:04,VALID,918.788,VALID,0,VALID,95.5671,VALID,0.107441,VALID,19.7028,VALID,346,VALID,0,
2013-11-28, 00:12:04,VALID,918.755,VALID,0,VALID,95.6053,VALID,0.107441,VALID,19.6623,VALID,348,VALID,0,
2013-11-28, 00:13:04,VALID,918.766,VALID,0,VALID,95.5976,VALID,0,VALID,19.6653,VALID,15,VALID,0,
2013-11-28, 00:14:04,VALID,918.739,VALID,0,VALID,95.6129,VALID,0,VALID,19.6263,VALID,15,VALID,0,
2013-11-28, 00:15:04,VALID,918.718,VALID,0,VALID,95.6281,VALID,0,VALID,19.6263,VALID,15,VALID,0,
2013-11-28, 00:16:04,VALID,918.727,VALID,0,VALID,95.651,VALID,0,VALID,19.5858,VALID,16,VALID,0,
2013-11-28, 00:17:04,VALID,918.691,VALID,0,VALID,95.6815,VALID,0,VALID,19.5663,VALID,15,VALID,0,
2013-11-28, 00:18:04,VALID,918.661,VALID,0,VALID,95.7196,VALID,0,VALID,19.5273,VALID,15,VALID,0,
2013-11-28, 00:19:04,VALID,918.655,VALID,0,VALID,95.7577,VALID,0,VALID,19.5288,VALID,16,VALID,0,
2013-11-28, 00:20:04,VALID,918.656,VALID,0,VALID,95.8416,VALID,0,VALID,19.5093,VALID,102,VALID,0,
2013-11-28, 00:21:04,VALID,918.64,VALID,0,VALID,95.895,VALID,0,VALID,19.4898,VALID,102,VALID,0,
2013-11-28, 00:22:04,VALID,918.607,VALID,0,VALID,95.9636,VALID,0,VALID,19.4508,VALID,102,VALID,0,
2013-11-28, 00:23:04,VALID,918.615,VALID,0,VALID,96.0398,VALID,0,VALID,19.4313,VALID,102,VALID,0,
2013-11-28, 00:24:04,VALID,918.604,VALID,0,VALID,96.1008,VALID,0,VALID,19.4313,VALID,102,VALID,0,
2013-11-28, 00:25:04,VALID,918.613,VALID,0,VALID,96.177,VALID,0,VALID,19.4118,VALID,102,VALID,0,
2013-11-28, 00:26:05,VALID,918.613,VALID,0,VALID,96.2304,VALID,0,VALID,19.4118,VALID,102,VALID,0,
2013-11-28, 00:27:05,VALID,918.615,VALID,0,VALID,96.2914,VALID,0,VALID,19.3908,VALID,102,VALID,0,
2013-11-28, 00:28:05,VALID,918.618,VALID,0,VALID,96.3524,VALID,0,VALID,19.4313,VALID,102,VALID,0,
2013-11-28, 00:29:05,VALID,918.617,VALID,0,VALID,96.3752,VALID,0,VALID,19.4313,VALID,102,VALID,0,
2013-11-28, 00:30:05,VALID,918.577,VALID,0,VALID,96.4362,VALID,0,VALID,19.4298,VALID,102,VALID,0,
2013-11-28, 00:31:05,VALID,918.554,VALID,0,VALID,96.4591,VALID,0,VALID,19.4508,VALID,102,VALID,0,
2013-11-28, 00:32:05,VALID,918.549,VALID,0,VALID,96.4667,VALID,0,VALID,19.4313,VALID,102,VALID,0,
2013-11-28, 00:33:05,VALID,918.505,VALID,0,VALID,96.5124,VALID,0,VALID,19.4508,VALID,102,VALID,0,
2013-11-28, 00:34:05,VALID,918.481,VALID,0,VALID,96.5277,VALID,0,VALID,19.4508,VALID,102,VALID,0,
2013-11-28, 00:35:05,VALID,918.481,VALID,0,VALID,96.5506,VALID,0,VALID,19.4313,VALID,102,VALID,0,
2013-11-28, 00:36:05,VALID,918.476,VALID,0,VALID,96.5811,VALID,0,VALID,19.4508,VALID,102,VALID,0,
2013-11-28, 00:37:05,VALID,918.454,VALID,0,VALID,96.6115,VALID,0,VALID,19.4703,VALID,102,VALID,0,
2013-11-28, 00:38:05,VALID,918.463,VALID,0,VALID,96.6192,VALID,0,VALID,19.4508,VALID,102,VALID,0,
2013-11-28, 00:39:05,VALID,918.456,VALID,0,VALID,96.6268,VALID,0,VALID,19.4493,VALID,102,VALID,0,
2013-11-28, 00:40:05,VALID,918.437,VALID,0,VALID,96.6192,VALID,0,VALID,19.4508,VALID,102,VALID,0,
2013-11-28, 00:41:05,VALID,918.43,VALID,0,VALID,96.642,VALID,0,VALID,19.4313,VALID,63,VALID,0,
2013-11-28, 00:42:05,VALID,918.438,VALID,0,VALID,96.6192,VALID,0,VALID,19.3728,VALID,63,VALID,0,
2013-11-28, 00:43:05,VALID,918.426,VALID,0,VALID,96.6344,VALID,0,VALID,19.3533,VALID,63,VALID,0,
2013-11-28, 00:44:05,VALID,918.408,VALID,0,VALID,96.6268,VALID,0,VALID,19.3547,VALID,63,VALID,0,
2013-11-28, 00:45:05,VALID,918.407,VALID,0,VALID,96.6344,VALID,0,VALID,19.2948,VALID,63,VALID,0,
2013-11-28, 00:46:05,VALID,918.413,VALID,0,VALID,96.6344,VALID,0,VALID,19.2753,VALID,63,VALID,0,
2013-11-28, 00:47:05,VALID,918.408,VALID,0,VALID,96.6649,VALID,0,VALID,19.2753,VALID,63,VALID,0,
2013-11-28, 00:48:05,VALID,918.409,VALID,0,VALID,96.6878,VALID,0,VALID,19.3143,VALID,63,VALID,0,
2013-11-28, 00:49:05,VALID,918.366,VALID,0,VALID,96.6954,VALID,0,VALID,19.3143,VALID,63,VALID,0,
2013-11-28, 00:50:05,VALID,918.379,VALID,0,VALID,96.7335,VALID,0,VALID,19.3338,VALID,63,VALID,0,
2013-11-28, 00:51:05,VALID,918.372,VALID,0,VALID,96.7411,VALID,0,VALID,19.3338,VALID,63,VALID,0,
2013-11-28, 00:52:05,VALID,918.385,VALID,0,VALID,96.764,VALID,0,VALID,19.3533,VALID,63,VALID,0,
2013-11-28, 00:53:05,VALID,918.357,VALID,0,VALID,96.7564,VALID,0,VALID,19.3533,VALID,63,VALID,0,
2013-11-28, 00:54:05,VALID,918.377,VALID,0,VALID,96.7488,VALID,0,VALID,19.3533,VALID,63,VALID,0,
2013-11-28, 00:55:05,VALID,918.412,VALID,0,VALID,96.7564,VALID,0,VALID,19.3338,VALID,63,VALID,0,
2013-11-28, 00:56:05,VALID,918.393,VALID,0,VALID,96.764,VALID,0,VALID,19.2948,VALID,63,VALID,0,
2013-11-28, 00:57:05,VALID,918.412,VALID,0,VALID,96.764,VALID,0,VALID,19.2753,VALID,63,VALID,0,
2013-11-28, 00:58:05,VALID,918.408,VALID,0,VALID,96.7564,VALID,0,VALID,19.2153,VALID,63,VALID,0,
2013-11-28, 00:59:05,VALID,918.394,VALID,0,VALID,96.7488,VALID,0,VALID,19.1554,VALID,63,VALID,0,
2013-11-28, 01:00:05,VALID,918.363,VALID,0,VALID,96.7411,VALID,0,VALID,19.1554,VALID,63,VALID,0,
2013-11-28, 01:01:05,VALID,918.358,VALID,0,VALID,96.764,VALID,0,VALID,19.1763,VALID,63,VALID,0,
2013-11-28, 01:02:05,VALID,918.339,VALID,0,VALID,96.7564,VALID,0.107441,VALID,19.1568,VALID,63,VALID,0,
2013-11-28, 01:03:05,VALID,918.343,VALID,0,VALID,96.7869,VALID,0.107441,VALID,19.1373,VALID,63,VALID,0,
2013-11-28, 01:04:05,VALID,918.34,VALID,0,VALID,96.7793,VALID,0.107441,VALID,19.0969,VALID,63,VALID,0,
2013-11-28, 01:05:05,VALID,918.344,VALID,0,VALID,96.8021,VALID,0,VALID,19.0969,VALID,63,VALID,0,
2013-11-28, 01:06:05,VALID,918.345,VALID,0,VALID,96.7793,VALID,0.107441,VALID,19.0983,VALID,63,VALID,0,
2013-11-28, 01:07:05,VALID,918.373,VALID,0,VALID,96.8098,VALID,0.107441,VALID,19.1178,VALID,63,VALID,0,
2013-11-28, 01:08:05,VALID,918.387,VALID,0,VALID,96.8098,VALID,0,VALID,19.0983,VALID,63,VALID,0,
2013-11-28, 01:09:05,VALID,918.374,VALID,0,VALID,96.825,VALID,0.107441,VALID,19.0983,VALID,63,VALID,0,
2013-11-28, 01:10:05,VALID,918.368,VALID,0,VALID,96.8479,VALID,0,VALID,19.0788,VALID,63,VALID,0,
2013-11-28, 01:11:05,VALID,918.375,VALID,0,VALID,96.825,VALID,0,VALID,19.0983,VALID,63,VALID,0,
2013-11-28, 01:12:05,VALID,918.351,VALID,0,VALID,96.8326,VALID,0,VALID,19.1373,VALID,63,VALID,0,
2013-11-28, 01:13:05,VALID,918.307,VALID,0,VALID,96.8555,VALID,0.107441,VALID,19.2543,VALID,63,VALID,0,
2013-11-28, 01:14:05,VALID,918.319,VALID,0,VALID,96.8707,VALID,0.107441,VALID,19.2348,VALID,63,VALID,0,
2013-11-28, 01:15:05,VALID,918.299,VALID,0,VALID,96.886,VALID,0.107441,VALID,19.2543,VALID,63,VALID,0,
2013-11-28, 01:16:05,VALID,918.31,VALID,0,VALID,96.8936,VALID,0,VALID,19.2153,VALID,63,VALID,0,
2013-11-28, 01:17:05,VALID,918.336,VALID,0,VALID,96.9012,VALID,0,VALID,19.1958,VALID,63,VALID,0,
2013-11-28, 01:18:05,VALID,918.316,VALID,0,VALID,96.886,VALID,0,VALID,19.1763,VALID,63,VALID,0,
2013-11-28, 01:19:05,VALID,918.316,VALID,0,VALID,96.9089,VALID,0.107441,VALID,19.1568,VALID,71,VALID,0,
2013-11-28, 01:20:05,VALID,918.315,VALID,0,VALID,96.8784,VALID,0,VALID,19.1958,VALID,77,VALID,0,
2013-11-28, 01:21:05,VALID,918.301,VALID,0,VALID,96.9089,VALID,0,VALID,19.2348,VALID,76,VALID,0,
2013-11-28, 01:22:05,VALID,918.27,VALID,0,VALID,96.9089,VALID,0,VALID,19.2348,VALID,77,VALID,0,
2013-11-28, 01:23:05,VALID,918.276,VALID,0,VALID,96.9165,VALID,0,VALID,19.2738,VALID,77,VALID,0,
2013-11-28, 01:24:05,VALID,918.238,VALID,0,VALID,96.9165,VALID,0,VALID,19.2933,VALID,77,VALID,0,
2013-11-28, 01:25:05,VALID,918.218,VALID,0,VALID,96.9165,VALID,0,VALID,19.2933,VALID,77,VALID,0,
2013-11-28, 01:26:05,VALID,918.175,VALID,0,VALID,96.9241,VALID,0,VALID,19.2933,VALID,77,VALID,0,
2013-11-28, 01:27:05,VALID,918.17,VALID,0,VALID,96.9241,VALID,0,VALID,19.3128,VALID,77,VALID,0,
2013-11-28, 01:28:05,VALID,918.156,VALID,0,VALID,96.9089,VALID,0,VALID,19.3533,VALID,77,VALID,0,
2013-11-28, 01:29:05,VALID,918.134,VALID,0,VALID,96.9089,VALID,0.107441,VALID,19.3713,VALID,77,VALID,0,
2013-11-28, 01:30:05,VALID,918.095,VALID,0,VALID,96.9165,VALID,0,VALID,19.3713,VALID,77,VALID,0,
2013-11-28, 01:31:05,VALID,918.069,VALID,0,VALID,96.9165,VALID,0,VALID,19.3908,VALID,77,VALID,0,
2013-11-28, 01:32:05,VALID,918.012,VALID,0,VALID,96.9089,VALID,0,VALID,19.3908,VALID,77,VALID,0,
2013-11-28, 01:33:05,VALID,917.955,VALID,0,VALID,96.9089,VALID,0,VALID,19.3908,VALID,77,VALID,0,
2013-11-28, 01:34:05,VALID,917.954,VALID,0,VALID,96.9012,VALID,0,VALID,19.3908,VALID,77,VALID,0,
2013-11-28, 01:35:05,VALID,917.898,VALID,0,VALID,96.8936,VALID,0,VALID,19.4103,VALID,77,VALID,0,
2013-11-28, 01:36:05,VALID,917.879,VALID,0,VALID,96.9012,VALID,0,VALID,19.4103,VALID,77,VALID,0,
2013-11-28, 01:37:05,VALID,917.845,VALID,0,VALID,96.8936,VALID,0,VALID,19.4103,VALID,77,VALID,0,
2013-11-28, 01:38:05,VALID,917.845,VALID,0,VALID,96.8707,VALID,0.107441,VALID,19.3713,VALID,83,VALID,0,
2013-11-28, 01:39:05,VALID,917.838,VALID,0,VALID,96.8784,VALID,0,VALID,19.3128,VALID,100,VALID,0,
2013-11-28, 01:40:05,VALID,917.828,VALID,0,VALID,96.8631,VALID,0,VALID,19.2738,VALID,101,VALID,0,
2013-11-28, 01:41:05,VALID,917.837,VALID,0,VALID,96.8479,VALID,0,VALID,19.2753,VALID,102,VALID,0,
2013-11-28, 01:42:05,VALID,917.853,VALID,0,VALID,96.8479,VALID,0,VALID,19.2543,VALID,102,VALID,0,
2013-11-28, 01:43:05,VALID,917.826,VALID,0,VALID,96.8403,VALID,0,VALID,19.2153,VALID,102,VALID,0,
2013-11-28, 01:44:05,VALID,917.82,VALID,0,VALID,96.8326,VALID,0,VALID,19.1763,VALID,102,VALID,0,
2013-11-28, 01:45:05,VALID,917.853,VALID,0,VALID,96.8174,VALID,0,VALID,19.0983,VALID,40,VALID,0,
2013-11-28, 01:46:05,VALID,917.877,VALID,0,VALID,96.8098,VALID,0,VALID,19.0803,VALID,47,VALID,0,
2013-11-28, 01:47:05,VALID,917.843,VALID,0,VALID,96.8403,VALID,0,VALID,19.0398,VALID,45,VALID,0,
2013-11-28, 01:48:05,VALID,917.837,VALID,0,VALID,96.8098,VALID,0,VALID,19.0203,VALID,43,VALID,0,
2013-11-28, 01:49:05,VALID,917.844,VALID,0,VALID,96.8479,VALID,0,VALID,19.0218,VALID,44,VALID,0,
2013-11-28, 01:50:05,VALID,917.812,VALID,0,VALID,96.8631,VALID,0,VALID,19.0203,VALID,44,VALID,0,
2013-11-28, 01:51:05,VALID,917.802,VALID,0,VALID,96.886,VALID,0,VALID,19.0008,VALID,41,VALID,0,
2013-11-28, 01:52:05,VALID,917.79,VALID,0,VALID,96.9089,VALID,0,VALID,19.0218,VALID,41,VALID,0,
2013-11-28, 01:53:05,VALID,917.78,VALID,0,VALID,96.9012,VALID,0,VALID,19.0008,VALID,41,VALID,0,
2013-11-28, 01:54:05,VALID,917.788,VALID,0,VALID,96.9241,VALID,0,VALID,19.0218,VALID,41,VALID,0,
2013-11-28, 01:55:05,VALID,917.74,VALID,0,VALID,96.9394,VALID,0,VALID,19.0203,VALID,41,VALID,0,
2013-11-28, 01:56:05,VALID,917.754,VALID,0,VALID,96.9394,VALID,0,VALID,19.0608,VALID,41,VALID,0,
2013-11-28, 01:57:05,VALID,917.732,VALID,0,VALID,96.9546,VALID,0,VALID,19.0803,VALID,41,VALID,0,
2013-11-28, 01:58:05,VALID,917.7,VALID,0,VALID,96.947,VALID,0,VALID,19.0788,VALID,41,VALID,0,
2013-11-28, 01:59:05,VALID,917.658,VALID,0,VALID,96.9851,VALID,0,VALID,19.0983,VALID,41,VALID,0,
2013-11-28, 02:00:05,VALID,917.613,VALID,0,VALID,96.9546,VALID,0,VALID,19.1373,VALID,40,VALID,0,
2013-11-28, 02:01:05,VALID,917.59,VALID,0,VALID,96.9775,VALID,0,VALID,19.1178,VALID,40,VALID,0,
2013-11-28, 02:02:05,VALID,917.578,VALID,0,VALID,97.008,VALID,0,VALID,19.0983,VALID,40,VALID,0,
2013-11-28, 02:03:05,VALID,917.563,VALID,0,VALID,96.9927,VALID,0,VALID,19.1178,VALID,40,VALID,0,
2013-11-28, 02:04:05,VALID,917.545,VALID,0,VALID,97.0156,VALID,0,VALID,19.0983,VALID,40,VALID,0,
2013-11-28, 02:05:05,VALID,917.507,VALID,0,VALID,97.0156,VALID,0,VALID,19.0803,VALID,41,VALID,0,
2013-11-28, 02:06:05,VALID,917.494,VALID,0,VALID,97.0232,VALID,0,VALID,19.0608,VALID,40,VALID,0,
2013-11-28, 02:07:05,VALID,917.486,VALID,0,VALID,97.008,VALID,0,VALID,19.0398,VALID,40,VALID,0,
2013-11-28, 02:08:05,VALID,917.468,VALID,0,VALID,97.0385,VALID,0,VALID,19.0008,VALID,40,VALID,0,
2013-11-28, 02:09:05,VALID,917.472,VALID,0,VALID,97.0156,VALID,0,VALID,19.0218,VALID,40,VALID,0,
2013-11-28, 02:10:05,VALID,917.429,VALID,0,VALID,97.0232,VALID,0,VALID,18.9424,VALID,40,VALID,0,
2013-11-28, 02:11:05,VALID,917.446,VALID,0,VALID,97.0385,VALID,0,VALID,18.9034,VALID,40,VALID,0,
2013-11-28, 02:12:05,VALID,917.448,VALID,0,VALID,97.0537,VALID,0,VALID,18.8644,VALID,41,VALID,0,
2013-11-28, 02:13:05,VALID,917.476,VALID,0,VALID,97.0308,VALID,0.107441,VALID,18.8073,VALID,55,VALID,0,
2013-11-28, 02:14:05,VALID,917.437,VALID,0,VALID,97.0385,VALID,0,VALID,18.7669,VALID,60,VALID,0,
2013-11-28, 02:15:05,VALID,917.461,VALID,0,VALID,97.0537,VALID,0,VALID,18.7474,VALID,60,VALID,0,
2013-11-28, 02:16:05,VALID,917.43,VALID,0,VALID,97.0461,VALID,0,VALID,18.7878,VALID,60,VALID,0,
2013-11-28, 02:17:05,VALID,917.44,VALID,0,VALID,97.0461,VALID,0,VALID,18.7488,VALID,60,VALID,0,
2013-11-28, 02:18:05,VALID,917.394,VALID,0,VALID,97.0613,VALID,0,VALID,18.7488,VALID,60,VALID,0,
2013-11-28, 02:19:05,VALID,917.364,VALID,0,VALID,97.0766,VALID,0,VALID,18.7488,VALID,60,VALID,0,
2013-11-28, 02:20:05,VALID,917.309,VALID,0,VALID,97.0766,VALID,0,VALID,18.7488,VALID,60,VALID,0,
2013-11-28, 02:21:05,VALID,917.272,VALID,0,VALID,97.0766,VALID,0,VALID,18.7683,VALID,60,VALID,0,
2013-11-28, 02:22:05,VALID,917.26,VALID,0,VALID,97.0994,VALID,0,VALID,18.7488,VALID,60,VALID,0,
2013-11-28, 02:23:05,VALID,917.24,VALID,0,VALID,97.0994,VALID,0,VALID,18.8268,VALID,60,VALID,0,
2013-11-28, 02:24:05,VALID,917.19,VALID,0,VALID,97.0994,VALID,0.107441,VALID,18.8268,VALID,60,VALID,0,
2013-11-28, 02:25:05,VALID,917.198,VALID,0,VALID,97.1147,VALID,0,VALID,18.8658,VALID,60,VALID,0,
2013-11-28, 02:26:05,VALID,917.164,VALID,0,VALID,97.1223,VALID,0,VALID,18.8254,VALID,60,VALID,0,
2013-11-28, 02:27:05,VALID,917.17,VALID,0,VALID,97.1223,VALID,0,VALID,18.8268,VALID,60,VALID,0,
2013-11-28, 02:28:05,VALID,917.174,VALID,0,VALID,97.1299,VALID,0,VALID,18.7878,VALID,60,VALID,0,
2013-11-28, 02:29:05,VALID,917.133,VALID,0,VALID,97.1299,VALID,0,VALID,18.7293,VALID,60,VALID,0,
2013-11-28, 02:30:05,VALID,917.112,VALID,0,VALID,97.1376,VALID,0,VALID,18.6903,VALID,60,VALID,0,
2013-11-28, 02:31:05,VALID,917.063,VALID,0,VALID,97.1528,VALID,0,VALID,18.6694,VALID,127,VALID,0,
2013-11-28, 02:32:05,VALID,917.056,VALID,0,VALID,97.1452,VALID,0,VALID,18.6708,VALID,127,VALID,0,
2013-11-28, 02:33:05,VALID,917.091,VALID,0,VALID,97.1528,VALID,0,VALID,18.6889,VALID,127,VALID,0,
2013-11-28, 02:34:05,VALID,917.053,VALID,0,VALID,97.1452,VALID,0,VALID,18.7279,VALID,127,VALID,0,
2013-11-28, 02:35:05,VALID,917.041,VALID,0,VALID,97.1528,VALID,0,VALID,18.7878,VALID,124,VALID,0,
2013-11-28, 02:36:05,VALID,917.047,VALID,0,VALID,97.1528,VALID,0,VALID,18.8268,VALID,126,VALID,0,
2013-11-28, 02:37:05,VALID,917.06,VALID,0,VALID,97.1604,VALID,0,VALID,18.8254,VALID,124,VALID,0,
2013-11-28, 02:38:05,VALID,917.044,VALID,0,VALID,97.1757,VALID,0,VALID,18.8463,VALID,126,VALID,0,
2013-11-28, 02:39:05,VALID,917.044,VALID,0,VALID,97.1833,VALID,0,VALID,18.8073,VALID,116,VALID,0,
2013-11-28, 02:40:05,VALID,917.024,VALID,0,VALID,97.1681,VALID,0,VALID,18.8268,VALID,118,VALID,0,
2013-11-28, 02:41:05,VALID,916.989,VALID,0,VALID,97.1681,VALID,0,VALID,18.8254,VALID,126,VALID,0,
2013-11-28, 02:42:05,VALID,916.936,VALID,0,VALID,97.1528,VALID,0.107441,VALID,18.8463,VALID,126,VALID,0,
2013-11-28, 02:43:05,VALID,916.916,VALID,0,VALID,97.1757,VALID,0,VALID,18.8059,VALID,126,VALID,0,
2013-11-28, 02:44:05,VALID,916.888,VALID,0,VALID,97.2138,VALID,0,VALID,18.7864,VALID,126,VALID,0,
2013-11-28, 02:45:05,VALID,916.87,VALID,0,VALID,97.2062,VALID,0,VALID,18.8059,VALID,126,VALID,0,
2013-11-28, 02:46:05,VALID,916.87,VALID,0,VALID,97.1986,VALID,0,VALID,18.8059,VALID,126,VALID,0,
2013-11-28, 02:47:05,VALID,916.857,VALID,0,VALID,97.1909,VALID,0,VALID,18.8268,VALID,126,VALID,0,
2013-11-28, 02:48:05,VALID,916.869,VALID,0,VALID,97.1909,VALID,0,VALID,18.8268,VALID,137,VALID,0,
2013-11-28, 02:49:05,VALID,916.863,VALID,0,VALID,97.2214,VALID,0,VALID,18.8268,VALID,137,VALID,0,
2013-11-28, 02:50:05,VALID,916.811,VALID,0,VALID,97.2214,VALID,0,VALID,18.8463,VALID,136,VALID,0,
2013-11-28, 02:51:05,VALID,916.795,VALID,0,VALID,97.1986,VALID,0,VALID,18.8463,VALID,134,VALID,0,
2013-11-28, 02:52:05,VALID,916.779,VALID,0,VALID,97.2138,VALID,0,VALID,18.8463,VALID,134,VALID,0,
2013-11-28, 02:53:05,VALID,916.777,VALID,0,VALID,97.2214,VALID,0,VALID,18.8658,VALID,134,VALID,0,
2013-11-28, 02:54:05,VALID,916.784,VALID,0,VALID,97.2138,VALID,0,VALID,18.8463,VALID,128,VALID,0,
2013-11-28, 02:55:05,VALID,916.807,VALID,0,VALID,97.2138,VALID,0,VALID,18.8254,VALID,128,VALID,0,
2013-11-28, 02:56:05,VALID,916.853,VALID,0,VALID,97.2214,VALID,0,VALID,18.8059,VALID,128,VALID,0,
2013-11-28, 02:57:05,VALID,916.839,VALID,0,VALID,97.2062,VALID,0,VALID,18.7864,VALID,128,VALID,0,
2013-11-28, 02:58:05,VALID,916.846,VALID,0,VALID,97.229,VALID,0,VALID,18.7878,VALID,128,VALID,0,
2013-11-28, 02:59:05,VALID,916.875,VALID,0,VALID,97.2443,VALID,0,VALID,18.7279,VALID,128,VALID,0,
2013-11-28, 03:00:05,VALID,916.869,VALID,0,VALID,97.229,VALID,0,VALID,18.7293,VALID,128,VALID,0,
2013-11-28, 03:01:05,VALID,916.879,VALID,0,VALID,97.2672,VALID,0,VALID,18.6903,VALID,128,VALID,0,
2013-11-28, 03:02:05,VALID,916.904,VALID,0,VALID,97.2519,VALID,0,VALID,18.6319,VALID,89,VALID,0,
2013-11-28, 03:03:05,VALID,916.892,VALID,0,VALID,97.2443,VALID,0,VALID,18.572,VALID,52,VALID,0,
2013-11-28, 03:04:05,VALID,916.881,VALID,0,VALID,97.2672,VALID,0,VALID,18.572,VALID,42,VALID,0,
2013-11-28, 03:05:05,VALID,916.865,VALID,0,VALID,97.2672,VALID,0,VALID,18.5734,VALID,43,VALID,0,
2013-11-28, 03:06:04,VALID,916.88,VALID,0,VALID,97.2595,VALID,0,VALID,18.572,VALID,42,VALID,0,
2013-11-28, 03:07:04,VALID,916.857,VALID,0,VALID,97.2748,VALID,0,VALID,18.572,VALID,10,VALID,0,
2013-11-28, 03:08:04,VALID,916.835,VALID,0,VALID,97.2672,VALID,0,VALID,18.5525,VALID,10,VALID,0,
2013-11-28, 03:09:04,VALID,916.804,VALID,0,VALID,97.2824,VALID,0,VALID,18.5734,VALID,10,VALID,0,
2013-11-28, 03:10:04,VALID,916.804,VALID,0,VALID,97.2672,VALID,0,VALID,18.5539,VALID,10,VALID,0,
2013-11-28, 03:11:04,VALID,916.827,VALID,0,VALID,97.29,VALID,0,VALID,18.5525,VALID,10,VALID,0,
2013-11-28, 03:12:04,VALID,916.801,VALID,0,VALID,97.2672,VALID,0,VALID,18.572,VALID,10,VALID,0,
2013-11-28, 03:13:04,VALID,916.789,VALID,0,VALID,97.29,VALID,0,VALID,18.572,VALID,10,VALID,0,
2013-11-28, 03:14:04,VALID,916.84,VALID,0,VALID,97.2824,VALID,0,VALID,18.6124,VALID,10,VALID,0,
2013-11-28, 03:15:04,VALID,916.859,VALID,0,VALID,97.3053,VALID,0,VALID,18.6319,VALID,10,VALID,0,
2013-11-28, 03:16:04,VALID,916.854,VALID,0,VALID,97.2977,VALID,0,VALID,18.6319,VALID,10,VALID,0,
2013-11-28, 03:17:04,VALID,916.891,VALID,0,VALID,97.29,VALID,0,VALID,18.5929,VALID,10,VALID,0,
2013-11-28, 03:18:04,VALID,916.904,VALID,0,VALID,97.2977,VALID,0,VALID,18.5539,VALID,10,VALID,0,
2013-11-28, 03:19:04,VALID,916.905,VALID,0,VALID,97.3053,VALID,0,VALID,18.533,VALID,10,VALID,0,
2013-11-28, 03:20:04,VALID,916.882,VALID,0,VALID,97.3053,VALID,0,VALID,18.5344,VALID,10,VALID,0,
2013-11-28, 03:21:04,VALID,916.884,VALID,0,VALID,97.3129,VALID,0,VALID,18.494,VALID,10,VALID,0,
2013-11-28, 03:22:04,VALID,916.85,VALID,0,VALID,97.3053,VALID,0,VALID,18.4759,VALID,10,VALID,0,
2013-11-28, 03:23:04,VALID,916.867,VALID,0,VALID,97.3129,VALID,0,VALID,18.4564,VALID,10,VALID,0,
2013-11-28, 03:24:04,VALID,916.891,VALID,0,VALID,97.3281,VALID,0,VALID,18.4174,VALID,10,VALID,0,
2013-11-28, 03:25:04,VALID,916.893,VALID,0,VALID,97.3281,VALID,0,VALID,18.4174,VALID,12,VALID,0,
2013-11-28, 03:26:04,VALID,916.909,VALID,0,VALID,97.3281,VALID,0,VALID,18.3979,VALID,12,VALID,0,
2013-11-28, 03:27:04,VALID,916.909,VALID,0,VALID,97.3358,VALID,0,VALID,18.3979,VALID,12,VALID,0,
2013-11-28, 03:28:04,VALID,916.871,VALID,0,VALID,97.3358,VALID,0,VALID,18.3784,VALID,12,VALID,0,
2013-11-28, 03:29:04,VALID,916.881,VALID,0,VALID,97.3205,VALID,0,VALID,18.3979,VALID,12,VALID,0,
2013-11-28, 03:30:04,VALID,916.864,VALID,0,VALID,97.3129,VALID,0,VALID,18.377,VALID,12,VALID,0,
2013-11-28, 03:31:04,VALID,916.853,VALID,0,VALID,97.3434,VALID,0,VALID,18.3784,VALID,12,VALID,0,
2013-11-28, 03:32:04,VALID,916.828,VALID,0,VALID,97.351,VALID,0,VALID,18.3784,VALID,12,VALID,0,
2013-11-28, 03:33:04,VALID,916.87,VALID,0,VALID,97.351,VALID,0,VALID,18.3589,VALID,12,VALID,0,
2013-11-28, 03:34:04,VALID,916.844,VALID,0,VALID,97.3358,VALID,0,VALID,18.3394,VALID,12,VALID,0,
2013-11-28, 03:35:04,VALID,916.835,VALID,0,VALID,97.3663,VALID,0,VALID,18.3199,VALID,12,VALID,0,
2013-11-28, 03:36:04,VALID,916.852,VALID,0,VALID,97.3663,VALID,0,VALID,18.3394,VALID,12,VALID,0,
2013-11-28, 03:37:04,VALID,916.811,VALID,0,VALID,97.3663,VALID,0,VALID,18.3784,VALID,12,VALID,0,
2013-11-28, 03:38:04,VALID,916.787,VALID,0,VALID,97.3663,VALID,0,VALID,18.3993,VALID,12,VALID,0,
2013-11-28, 03:39:04,VALID,916.777,VALID,0,VALID,97.3739,VALID,0,VALID,18.338,VALID,12,VALID,0,
2013-11-28, 03:40:04,VALID,916.742,VALID,0,VALID,97.3663,VALID,0,VALID,18.3589,VALID,12,VALID,0,
2013-11-28, 03:41:04,VALID,916.76,VALID,0,VALID,97.3739,VALID,0,VALID,18.3394,VALID,22,VALID,0,
2013-11-28, 03:42:04,VALID,916.718,VALID,0,VALID,97.3891,VALID,0,VALID,18.2809,VALID,73,VALID,0,
2013-11-28, 03:43:04,VALID,916.725,VALID,0,VALID,97.3739,VALID,0,VALID,18.2601,VALID,102,VALID,0,
2013-11-28, 03:44:04,VALID,916.702,VALID,0,VALID,97.3891,VALID,0,VALID,18.2809,VALID,102,VALID,0,
2013-11-28, 03:45:04,VALID,916.723,VALID,0,VALID,97.3739,VALID,0,VALID,18.2615,VALID,102,VALID,0,
2013-11-28, 03:46:04,VALID,916.696,VALID,0,VALID,97.3815,VALID,0,VALID,18.242,VALID,102,VALID,0,
2013-11-28, 03:47:04,VALID,916.712,VALID,0,VALID,97.4044,VALID,0,VALID,18.242,VALID,102,VALID,0,
2013-11-28, 03:48:04,VALID,916.713,VALID,0,VALID,97.3968,VALID,0,VALID,18.203,VALID,102,VALID,0,
2013-11-28, 03:49:04,VALID,916.715,VALID,0,VALID,97.4044,VALID,0,VALID,18.1835,VALID,102,VALID,0,
2013-11-28, 03:50:04,VALID,916.736,VALID,0,VALID,97.4196,VALID,0,VALID,18.1445,VALID,102,VALID,0,
2013-11-28, 03:51:04,VALID,916.734,VALID,0,VALID,97.4273,VALID,0,VALID,18.125,VALID,102,VALID,0,
2013-11-28, 03:52:04,VALID,916.757,VALID,0,VALID,97.4044,VALID,0,VALID,18.1055,VALID,102,VALID,0,
2013-11-28, 03:53:04,VALID,916.772,VALID,0,VALID,97.4196,VALID,0,VALID,18.086,VALID,102,VALID,0,
2013-11-28, 03:54:04,VALID,916.778,VALID,0,VALID,97.4196,VALID,0,VALID,18.0665,VALID,102,VALID,0,
2013-11-28, 03:55:04,VALID,916.761,VALID,0,VALID,97.4273,VALID,0,VALID,18.0275,VALID,102,VALID,0,
2013-11-28, 03:56:04,VALID,916.762,VALID,0,VALID,97.4044,VALID,0,VALID,18.0275,VALID,102,VALID,0,
2013-11-28, 03:57:04,VALID,916.749,VALID,0,VALID,97.4196,VALID,0,VALID,18.0275,VALID,102,VALID,0,
2013-11-28, 03:58:04,VALID,916.755,VALID,0,VALID,97.4273,VALID,0,VALID,18.047,VALID,102,VALID,0,
2013-11-28, 03:59:04,VALID,916.778,VALID,0.2,VALID,97.4349,VALID,0,VALID,18.0651,VALID,102,VALID,0,
2013-11-28, 04:00:04,VALID,916.765,VALID,0,VALID,97.4273,VALID,0,VALID,18.1055,VALID,102,VALID,0,